GW4612 Weather Reports


Display with metric or nautical units.
time (UTC)temp
F
wind
direction
speed
MPH
gust
MPH
rain 1hr
in
rain 24hr
in
rain mn
in
humidity
%
barometer
mb
20260504070217 45 228 0.0 1.0 0.00 0.00 0.00 60 1017.1
20260504060137 46 227 0.0 0.0 0.00 0.00 0.00 63 1017.4
20260504050605 46 170 0.0 0.0 0.00 0.00 0.00 61 1017.4
20260504045559 46 170 0.0 0.0 0.00 0.00 0.00 64 1017.6
20260504045054 46 169 0.0 0.0 0.00 0.00 0.00 63 1017.7
20260504044552 46 169 0.0 0.0 0.00 0.00 0.00 61 1017.7
20260504044043 46 162 0.0 1.0 0.00 0.00 0.00 62 1017.6
20260504043541 46 147 0.0 0.0 0.00 0.00 0.00 59 1017.7
20260504043038 46 146 0.0 0.0 0.00 0.00 0.00 58 1017.5
20260504042535 46 147 0.0 1.0 0.00 0.00 0.00 58 1017.7
20260504042032 46 147 0.0 0.0 0.00 0.00 0.00 58 1017.5
20260504041528 47 147 0.0 0.0 0.00 0.00 0.00 57 1017.5
20260504041024 47 146 0.0 0.0 0.00 0.00 0.00 58 1017.5
20260504040521 48 160 0.0 1.0 0.00 0.00 0.00 60 1017.6
20260504040018 48 162 0.0 0.0 0.00 0.00 0.00 55 1017.6
20260504035515 48 160 0.0 0.0 0.00 0.00 0.00 54 1017.6
20260504035011 49 189 1.0 1.0 0.00 0.00 0.00 57 1017.6
20260504034509 49 262 0.0 1.0 0.00 0.00 0.00 49 1017.7
20260504034006 50 263 1.0 2.0 0.00 0.00 0.00 49 1017.8
20260504033504 50 266 1.0 1.0 0.00 0.00 0.00 48 1017.6
20260504033001 49 241 1.0 3.0 0.00 0.00 0.00 45 1017.8
20260504032457 49 268 0.0 2.0 0.00 0.00 0.00 46 1017.6
20260504031953 49 269 1.0 2.0 0.00 0.00 0.00 50 1017.6
20260504031450 49 257 0.0 1.0 0.00 0.00 0.00 48 1017.5
20260504030947 49 256 1.0 2.0 0.00 0.00 0.00 50 1017.6
20260504030445 49 259 1.0 2.0 0.00 0.00 0.00 47 1017.5
20260504025940 48 259 0.0 1.0 0.00 0.00 0.00 48 1017.5
20260504025438 49 258 0.0 0.0 0.00 0.00 0.00 52 1017.5
20260504024935 49 258 0.0 2.0 0.00 0.00 0.00 52 1017.7
20260504024432 49 264 0.0 0.0 0.00 0.00 0.00 51 1017.7
20260504023929 49 264 1.0 1.0 0.00 0.00 0.00 52 1017.6
20260504023425 49 264 0.0 1.0 0.00 0.00 0.00 44 1017.6
20260504022921 49 268 0.0 1.0 0.00 0.00 0.00 49 1017.6
20260504022418 48 288 2.0 2.0 0.00 0.00 0.00 50 1017.6
20260504021914 48 263 0.0 1.0 0.00 0.00 0.00 50 1017.6
20260504021411 48 255 0.0 2.0 0.00 0.00 0.00 53 1017.5
20260504020908 48 229 0.0 0.0 0.00 0.00 0.00 49 1017.5
20260504020404 48 238 0.0 1.0 0.00 0.00 0.00 48 1017.5
20260504015855 49 244 0.0 1.0 0.00 0.00 0.00 47 1017.7
20260504015352 49 314 2.0 3.0 0.00 0.00 0.00 46 1017.7
20260504014848 48 257 2.0 3.0 0.00 0.00 0.00 47 1017.7
20260504014344 48 254 0.0 1.0 0.00 0.00 0.00 49 1017.4
20260504013842 48 254 1.0 2.0 0.00 0.00 0.00 49 1017.3
20260504013339 48 261 1.0 2.0 0.00 0.00 0.00 48 1017.3
20260504012836 48 276 3.0 3.0 0.00 0.00 0.00 47 1017.3
20260504012334 48 269 2.0 2.0 0.00 0.00 0.00 47 1017.1
20260504011831 48 270 2.0 2.0 0.00 0.00 0.00 48 1017.2
20260504011327 48 266 2.0 3.0 0.00 0.00 0.00 49 1017.2
20260504010823 48 262 0.0 2.0 0.00 0.00 0.00 46 1016.9
20260504010319 49 257 2.0 2.0 0.00 0.00 0.00 50 1017.2
20260504005816 49 270 1.0 1.0 0.00 0.00 0.00 45 1017.2
20260504005313 49 268 1.0 2.0 0.00 0.00 0.00 46 1017.0
20260504004810 49 255 0.0 2.0 0.00 0.00 0.00 44 1017.1
20260504004308 49 255 2.0 2.0 0.00 0.00 0.00 48 1017.1
20260504003804 50 257 1.0 2.0 0.00 0.00 0.00 46 1016.9
20260504003301 50 268 1.0 2.0 0.00 0.00 0.00 44 1016.8
20260504002757 50 261 2.0 2.0 0.00 0.00 0.00 45 1016.8
20260504002255 51 273 1.0 2.0 0.00 0.00 0.00 40 1016.7
20260504001752 51 240 0.0 1.0 0.00 0.00 0.00 41 1016.8
20260504001249 52 259 1.0 2.0 0.00 0.00 0.00 41 1016.8
20260504000746 52 264 0.0 0.0 0.00 0.00 0.00 39 1016.8
20260504000243 52 244 1.0 2.0 0.00 0.00 0.00 37 1016.9
20260503235741 52 249 1.0 1.0 0.00 0.00 0.00 37 1016.7
20260503235238 52 268 0.0 1.0 0.00 0.00 0.00 38 1016.9
20260503234735 53 269 0.0 2.0 0.00 0.00 0.00 40 1016.9
20260503234233 53 240 1.0 1.0 0.00 0.00 0.00 37 1016.9
20260503233730 54 213 0.0 0.0 0.00 0.00 0.00 35 1016.9
20260503233226 55 219 1.0 4.0 0.00 0.00 0.00 35 1016.9
20260503232723 55 227 1.0 4.0 0.00 0.00 0.00 34 1017.0
20260503232220 55 253 0.0 4.0 0.00 0.00 0.00 34 1016.9
20260503231719 55 124 3.0 4.0 0.00 0.00 0.00 37 1016.6
20260503231215 55 259 2.0 3.0 0.00 0.00 0.00 35 1016.8
20260503230711 55 185 0.0 0.0 0.00 0.00 0.00 33 1016.8
20260503230208 56 257 1.0 3.0 0.00 0.00 0.00 33 1016.8
20260503225705 56 243 3.0 3.0 0.00 0.00 0.00 31 1016.6
20260503225200 56 274 2.0 7.0 0.00 0.00 0.00 30 1016.7
20260503224657 57 284 4.0 7.0 0.00 0.00 0.00 32 1016.6
20260503224155 58 108 2.0 6.0 0.00 0.00 0.00 29 1016.7
20260503223653 59 292 1.0 2.0 0.00 0.00 0.00 30 1016.8
20260503223149 59 255 3.0 4.0 0.00 0.00 0.00 29 1016.7
20260503222646 59 290 3.0 8.0 0.00 0.00 0.00 29 1016.7
20260503222144 59 265 3.0 6.0 0.00 0.00 0.00 28 1016.8
20260503221643 59 268 4.0 8.0 0.00 0.00 0.00 30 1016.6
20260503221139 60 255 2.0 4.0 0.00 0.00 0.00 34 1016.5
20260503220635 61 335 2.0 7.0 0.00 0.00 0.00 27 1016.7
20260503220132 60 277 2.0 6.0 0.00 0.00 0.00 28 1016.7
20260503215630 60 253 1.0 4.0 0.00 0.00 0.00 35 1016.7
20260503215126 60 304 3.0 6.0 0.00 0.00 0.00 27 1016.8
20260503214625 60 255 5.0 6.0 0.00 0.00 0.00 29 1016.8
20260503214120 60 303 2.0 10.0 0.00 0.00 0.00 29 1016.9
20260503213615 61 3 6.0 7.0 0.00 0.00 0.00 26 1016.9
20260503213110 60 267 4.0 9.0 0.00 0.00 0.00 29 1016.9
20260503212608 60 239 1.0 6.0 0.00 0.00 0.00 29 1016.7
20260503212105 60 268 3.0 6.0 0.00 0.00 0.00 28 1016.9
20260503211603 60 270 2.0 8.0 0.00 0.00 0.00 30 1017.1
20260503211058 60 280 3.0 6.0 0.00 0.00 0.00 29 1016.8
20260503210555 60 245 2.0 8.0 0.00 0.00 0.00 30 1016.9
20260503210050 60 337 4.0 4.0 0.00 0.00 0.00 28 1016.9
20260503205547 60 273 6.0 9.0 0.00 0.00 0.00 28 1017.2
20260503205044 61 308 6.0 9.0 0.00 0.00 0.00 29 1017.1
20260503204541 60 35 2.0 4.0 0.00 0.00 0.00 30 1017.0
20260503204038 60 329 4.0 6.0 0.00 0.00 0.00 28 1016.9
20260503203535 60 298 4.0 10.0 0.00 0.00 0.00 30 1017.1
20260503203032 60 241 7.0 11.0 0.00 0.00 0.00 30 1017.3
20260503202530 60 340 3.0 6.0 0.00 0.00 0.00 30 1017.4
20260503202027 61 299 7.0 10.0 0.00 0.00 0.00 30 1017.3
20260503201520 62 242 3.0 4.0 0.00 0.00 0.00 27 1017.5
20260503201017 60 277 1.0 7.0 0.00 0.00 0.00 28 1017.6
20260503200513 60 332 3.0 4.0 0.00 0.00 0.00 30 1017.5
20260503200010 61 303 10.0 11.0 0.00 0.00 0.00 28 1017.7
20260503195507 60 317 5.0 6.0 0.00 0.00 0.00 31 1017.6
20260503195003 60 251 4.0 9.0 0.00 0.00 0.00 31 1017.6
20260503194500 60 265 4.0 8.0 0.00 0.00 0.00 30 1017.7
20260503193955 59 245 4.0 9.0 0.00 0.00 0.00 31 1017.9
20260503193451 60 307 5.0 13.0 0.00 0.00 0.00 28 1017.8
20260503192947 59 320 4.0 6.0 0.00 0.00 0.00 30 1017.7
20260503192443 60 359 4.0 7.0 0.00 0.00 0.00 30 1017.7
20260503191939 61 281 0.0 8.0 0.00 0.00 0.00 29 1018.0
20260503191437 59 197 0.0 3.0 0.00 0.00 0.00 33 1018.0
20260503190933 60 221 4.0 9.0 0.00 0.00 0.00 29 1018.1
20260503190431 58 253 2.0 13.0 0.00 0.00 0.00 31 1018.2
20260503185927 59 290 3.0 9.0 0.00 0.00 0.00 29 1018.3
20260503185424 59 86 2.0 6.0 0.00 0.00 0.00 34 1018.3
20260503184923 60 178 3.0 6.0 0.00 0.00 0.00 32 1018.4
20260503184420 58 243 6.0 15.0 0.00 0.00 0.00 30 1018.7
20260503183916 59 198 3.0 6.0 0.00 0.00 0.00 30 1018.7
20260503183413 58 276 4.0 8.0 0.00 0.00 0.00 33 1018.7
20260503182910 59 164 5.0 9.0 0.00 0.00 0.00 30 1018.7
20260503182409 59 80 2.0 4.0 0.00 0.00 0.00 30 1018.5
20260503181906 60 300 3.0 8.0 0.00 0.00 0.00 33 1018.5
20260503181403 58 131 2.0 2.0 0.00 0.00 0.00 32 1018.5
20260503180859 58 286 1.0 4.0 0.00 0.00 0.00 31 1018.8
20260503180357 56 268 8.0 10.0 0.00 0.00 0.00 33 1018.8
20260503175853 57 267 5.0 9.0 0.00 0.00 0.00 32 1018.8
20260503175351 58 133 5.0 6.0 0.00 0.00 0.00 31 1018.8
20260503174847 56 352 2.0 10.0 0.00 0.00 0.00 35 1018.8
20260503174345 57 330 5.0 14.0 0.00 0.00 0.00 32 1018.9
20260503173845 57 295 8.0 11.0 0.00 0.00 0.00 33 1018.8
20260503173342 57 53 2.0 4.0 0.00 0.00 0.00 33 1018.9
20260503172838 56 234 5.0 9.0 0.00 0.00 0.00 32 1018.7
20260503172336 56 310 7.0 9.0 0.00 0.00 0.00 37 1019.2
20260503171832 57 323 10.0 11.0 0.00 0.00 0.00 34 1019.1
20260503171329 56 223 1.0 4.0 0.00 0.00 0.00 33 1019.0
20260503170826 56 239 7.0 8.0 0.00 0.00 0.00 34 1019.2
20260503170323 56 319 4.0 9.0 0.00 0.00 0.00 32 1019.2
20260503150715 49 279 4.0 10.0 0.00 0.00 0.00 44 1020.1
20260503150211 50 318 4.0 10.0 0.00 0.00 0.00 40 1020.4
20260503140136 47 321 4.0 4.0 0.00 0.00 0.00 52 1020.1
20260503131105 46 323 6.0 10.0 0.00 0.00 0.00 52 1020.3
20260503130603 46 317 10.0 13.0 0.00 0.00 0.00 53 1020.2
20260503110453 40 271 0.0 0.0 0.00 0.00 0.00 65 1019.1
20260503090338 37 260 2.0 4.0 0.00 0.00 0.00 71 1018.2
20260503081300 38 358 1.0 2.0 0.00 0.00 0.00 73 1017.7
20260503080755 37 307 2.0 6.0 0.00 0.00 0.00 75 1017.7
20260503080253 38 155 1.0 1.0 0.00 0.00 0.00 79 1017.7